Location: Newark
(41.1142°N, 73.9831°W)
Time: 10:58:02
(UTC+00:00)

ISS - Pass Details

Date: 24 September 2019
Orbit: 411 x 421 km, 51.6° (Epoch: 20 October)

Event Time Altitude Azimuth Distance (km) Brightness Sun altitude
Rises 00:43:29 0° 276° (W) 2,340 1.4 -21.5°
Reaches altitude 10° 00:46:00 10° 296° (WNW) 1,480 0.2 -21.9°
Maximum altitude 00:48:27 19° 343° (NNW) 1,063 -1.3 -22.4°
Enters shadow 00:49:22 17° 5° (N) 1,133 -1.4 -22.5°
